Decimomannu, Italy

6:21 AM CEST on May 25, 2017 (GMT +0200)
Decimomannu Mil

Weather History for LIED - November, 2012

Change the Weather History Date:

Friday, November 2, 2012

  Actual Average Record
Temperature  
Mean Temperature 63 °F -  
Max Temperature 74 °F 65 °F 76 °F (2013)
Min Temperature 51 °F 47 °F 44 °F (2000)
Degree Days  
Heating Degree Days 2    
Growing Degree Days 13 (Base 50)    
Moisture  
Dew Point 53 °F    
Average Humidity 74    
Maximum Humidity 94    
Minimum Humidity 40    
Precipitation  
Precipitation 0.00 in 0.09 in - ()
Sea Level Pressure  
Sea Level Pressure 29.89 in    
Wind  
Wind Speed 4 mph ()    
Max Wind Speed 15 mph    
Max Gust Speed -    
Visibility 7.0 miles    
Events      
Averages and records for this station are not official NWS values.
T = Trace of Precipitation, MM = Missing Value Source: Averaged Metar Reports

Daily Weather History Graph

Daily Weather History Graph

Search for Another Location

Airport or City:

Trip Planner

Search our weather history database for the weather conditions in past years. The results will help you decide how hot, cold, wet, or windy it might be!

Date:

Astronomy

Nov. 02, 2012 Rise Set
Actual Time 6:53 AM CET 5:21 PM CET
Civil Twilight 6:25 AM CET 5:49 PM CET
Nautical Twilight 5:53 AM CET 6:20 PM CET
Astronomical Twilight 5:22 AM CET 6:52 PM CET
Moon 7:55 PM CET (11/2) 10:00 AM CET (11/2)
Length of Visible Light 11h 23m
Length of Day
10h 27m
Waning Gibbous, 89% of the Moon is Illuminated
Nov 2
Waning Gibbous
Nov 7
Last Quarter
Nov 13
New
Nov 20
First Quarter
Nov 28
Full

Hourly Weather History & Observations

Time (CET) Temp. Dew Point Humidity Pressure Visibility Wind Dir Wind Speed Gust Speed Precip Events Conditions
12:55 AM 59.0 °F 53.6 °F 82% 29.77 in 6.2 mi West 4.6 mph - N/A   Scattered Clouds
1:00 AM 59 °F 54 °F 79% 29.77 in 7 mi West 4.6 mph - -   Partly Cloudy
1:55 AM 55.4 °F 51.8 °F 88% 29.77 in 6.2 mi ENE 3.5 mph - N/A   Partly Cloudy
2:55 AM 53.6 °F 50.0 °F 88% 29.77 in 6.2 mi ESE 1.2 mph - N/A   Partly Cloudy
3:55 AM 53.6 °F 50.0 °F 88% 29.77 in 6.2 mi ENE 1.2 mph - N/A   Scattered Clouds
4:00 AM 54 °F 49 °F 79% 29.78 in 7 mi ENE 1.2 mph - -   Scattered Clouds
4:55 AM 53.6 °F 50.0 °F 88% 29.80 in 6.2 mi East 2.3 mph - N/A   Scattered Clouds
5:55 AM 53.6 °F 50.0 °F 88% 29.80 in 6.2 mi NE 3.5 mph - N/A   Scattered Clouds
6:55 AM 53.6 °F 48.2 °F 82% 29.86 in 6.2 mi NNE 2.3 mph - N/A   Scattered Clouds
7:00 AM 53 °F 49 °F 80% 29.87 in 7 mi NNE 2.3 mph - -   Partly Cloudy
7:55 AM 53.6 °F 50.0 °F 88% 29.86 in 6.2 mi Calm Calm - N/A   Partly Cloudy
8:55 AM 62.6 °F 57.2 °F 82% 29.86 in 6.2 mi ESE 3.5 mph - N/A   Partly Cloudy
9:55 AM 68.0 °F 57.2 °F 68% 29.89 in 6.2 mi South 2.3 mph - N/A   Scattered Clouds
10:55 AM 71.6 °F 57.2 °F 60% 29.89 in 6.2 mi WSW 11.5 mph - N/A   Scattered Clouds
11:55 AM 73.4 °F 55.4 °F 53% 29.89 in 6.2 mi West 13.8 mph - N/A   Mostly Cloudy
12:55 PM 73.4 °F 53.6 °F 50% 29.89 in 6.2 mi WSW 13.8 mph - N/A   Mostly Cloudy
1:00 PM 73 °F 54 °F 40% 29.91 in 12 mi WSW 13.8 mph - -   Mostly Cloudy
1:55 PM 75.2 °F 55.4 °F 50% 29.89 in 6.2 mi West 15.0 mph - N/A   Scattered Clouds
2:55 PM 73.4 °F 53.6 °F 50% 29.92 in 6.2 mi West 11.5 mph - N/A   Scattered Clouds
3:55 PM 71.6 °F 55.4 °F 57% 29.92 in 6.2 mi WNW 10.4 mph - N/A   Scattered Clouds
4:00 PM 72 °F 56 °F 47% 29.93 in 12 mi WNW 10.4 mph - -   Partly Cloudy
4:55 PM 69.8 °F 57.2 °F 64% 29.92 in 6.2 mi NW 8.1 mph - N/A   Partly Cloudy
5:55 PM 64.4 °F 53.6 °F 68% 29.95 in - NW 3.5 mph - N/A   Clear
6:55 PM 60.8 °F 55.4 °F 82% 29.95 in - SSW 2.3 mph - N/A   Clear
7:00 PM 61 °F 55 °F 73% 29.97 in 6 mi SSW 2.3 mph - -  
7:55 PM 59.0 °F 53.6 °F 82% 29.98 in - West 1.2 mph - N/A   Clear
8:55 PM 57.2 °F 53.6 °F 88% 30.01 in 6.2 mi East 2.3 mph - N/A   Partly Cloudy
9:55 PM 55.4 °F 51.8 °F 88% 30.01 in - East 1.2 mph - N/A   Clear
10:00 PM 55 °F 53 °F 88% 30.01 in 12 mi East 1.2 mph - -  
10:55 PM 53.6 °F 50.0 °F 88% 30.01 in - NNE 2.3 mph - N/A   Clear
11:55 PM 51.8 °F 50.0 °F 94% 30.01 in - North 2.3 mph - N/A   Clear